Time,TemperatureF,DewpointF,PressureIn,WindDirection,WindDirectionDegrees,WindSpeedMPH,WindSpeedGustMPH,Humidity,HourlyPrecipIn,Conditions,Clouds,dailyrainin,SoftwareType,DateUTC
2013-01-18 00:04:00,43.7,33.1,29.85,NW,315,0.0,0.0,66,0.00,,---,0.00,VWS V14.00,2013-01-18 08:04:00,
2013-01-18 00:09:00,43.7,33.1,29.85,NW,315,0.0,0.0,66,0.00,,---,0.00,VWS V14.00,2013-01-18 08:09:00,
2013-01-18 00:14:00,43.3,32.4,29.85,West,270,0.0,0.0,65,0.00,,---,0.00,VWS V14.00,2013-01-18 08:14:00,
2013-01-18 00:20:00,43.3,32.8,29.85,West,270,0.0,0.0,66,0.00,,---,0.00,VWS V14.00,2013-01-18 08:20:00,
2013-01-18 00:25:00,43.2,32.6,29.85,WNW,292,0.0,0.0,66,0.00,,---,0.00,VWS V14.00,2013-01-18 08:25:00,
2013-01-18 00:30:00,43.0,32.4,29.85,WNW,292,0.0,0.0,66,0.00,,---,0.00,VWS V14.00,2013-01-18 08:30:00,
2013-01-18 00:35:00,43.0,32.4,29.85,NW,315,0.0,0.0,66,0.00,,---,0.00,VWS V14.00,2013-01-18 08:35:00,
2013-01-18 00:41:00,43.0,32.4,29.85,NW,315,0.0,0.0,66,0.00,,---,0.00,VWS V14.00,2013-01-18 08:41:00,
2013-01-18 00:46:00,43.0,32.4,29.85,NW,315,0.0,0.0,66,0.00,,---,0.00,VWS V14.00,2013-01-18 08:46:00,
2013-01-18 00:51:00,42.8,32.6,29.85,NW,315,0.0,0.0,67,0.00,,---,0.00,VWS V14.00,2013-01-18 08:51:00,
2013-01-18 00:56:00,42.8,32.6,29.85,NNW,338,1.1,1.1,67,0.00,,---,0.00,VWS V14.00,2013-01-18 08:56:00,
2013-01-18 01:01:00,42.6,32.4,29.85,NW,315,0.0,0.0,67,0.00,,---,0.00,VWS V14.00,2013-01-18 09:01:00,
2013-01-18 01:06:00,42.4,32.3,29.88,SSW,202,0.0,0.0,67,0.00,,---,0.00,VWS V14.00,2013-01-18 09:06:00,
2013-01-18 01:12:00,42.4,32.3,29.88,West,270,0.0,0.0,67,0.00,,---,0.00,VWS V14.00,2013-01-18 09:12:00,
2013-01-18 01:17:00,42.4,32.3,29.85,West,270,0.0,0.0,67,0.00,,---,0.00,VWS V14.00,2013-01-18 09:17:00,
2013-01-18 01:23:00,42.4,32.3,29.85,WNW,292,0.0,0.0,67,0.00,,---,0.00,VWS V14.00,2013-01-18 09:23:00,
2013-01-18 01:29:00,42.4,32.3,29.85,WNW,292,0.0,0.0,67,0.00,,---,0.00,VWS V14.00,2013-01-18 09:29:00,
2013-01-18 01:34:00,42.4,32.3,29.85,NW,315,0.0,0.0,67,0.00,,---,0.00,VWS V14.00,2013-01-18 09:34:00,
2013-01-18 01:39:00,42.1,32.3,29.85,NW,315,0.0,0.0,68,0.00,,---,0.00,VWS V14.00,2013-01-18 09:39:00,
2013-01-18 01:44:00,42.1,32.3,29.85,NW,315,0.0,0.0,68,0.00,,---,0.00,VWS V14.00,2013-01-18 09:44:00,
2013-01-18 01:50:00,42.1,32.3,29.88,NW,315,0.0,0.0,68,0.00,,---,0.00,VWS V14.00,2013-01-18 09:50:00,
2013-01-18 01:55:00,42.1,32.7,29.88,NW,315,0.0,0.0,69,0.00,,---,0.00,VWS V14.00,2013-01-18 09:55:00,
2013-01-18 02:01:00,42.3,32.8,29.88,NW,315,0.0,0.0,69,0.00,,---,0.00,VWS V14.00,2013-01-18 10:01:00,
2013-01-18 02:07:00,42.1,32.7,29.88,WNW,292,0.0,0.0,69,0.00,,---,0.00,VWS V14.00,2013-01-18 10:07:00,
2013-01-18 02:13:00,42.1,32.7,29.88,WNW,292,0.0,0.0,69,0.00,,---,0.00,VWS V14.00,2013-01-18 10:13:00,
2013-01-18 02:18:00,42.1,32.7,29.88,NNW,338,1.3,1.3,69,0.00,,---,0.00,VWS V14.00,2013-01-18 10:18:00,
2013-01-18 02:24:00,42.1,32.7,29.88,South,180,0.0,0.0,69,0.00,,---,0.00,VWS V14.00,2013-01-18 10:24:00,
2013-01-18 02:29:00,41.9,32.5,29.88,SSW,202,0.0,0.0,69,0.00,,---,0.00,VWS V14.00,2013-01-18 10:29:00,
2013-01-18 02:35:00,41.9,32.5,29.85,NW,315,0.0,0.0,69,0.00,,---,0.00,VWS V14.00,2013-01-18 10:35:00,
2013-01-18 02:40:00,41.9,32.5,29.85,NW,315,0.0,0.0,69,0.00,,---,0.00,VWS V14.00,2013-01-18 10:40:00,
2013-01-18 02:45:00,41.9,32.5,29.85,NW,315,0.0,0.0,69,0.00,,---,0.00,VWS V14.00,2013-01-18 10:45:00,
2013-01-18 02:51:00,41.7,32.3,29.85,NW,315,0.0,0.0,69,0.00,,---,0.00,VWS V14.00,2013-01-18 10:51:00,
2013-01-18 02:57:00,41.7,32.3,29.85,West,270,0.0,0.0,69,0.00,,---,0.00,VWS V14.00,2013-01-18 10:57:00,
2013-01-18 03:02:00,41.7,32.3,29.85,West,270,0.0,0.0,69,0.00,,---,0.00,VWS V14.00,2013-01-18 11:02:00,
2013-01-18 03:08:00,41.7,32.7,29.85,West,270,0.0,0.0,70,0.00,,---,0.00,VWS V14.00,2013-01-18 11:08:00,
2013-01-18 03:13:00,41.5,32.5,29.85,West,270,0.0,0.0,70,0.00,,---,0.00,VWS V14.00,2013-01-18 11:13:00,
2013-01-18 03:18:00,41.5,32.5,29.85,South,180,0.0,0.0,70,0.00,,---,0.00,VWS V14.00,2013-01-18 11:18:00,
2013-01-18 03:23:00,41.7,32.7,29.85,SSW,202,0.0,0.0,70,0.00,,---,0.00,VWS V14.00,2013-01-18 11:23:00,
2013-01-18 03:29:00,41.7,32.7,29.85,SW,225,0.0,0.0,70,0.00,,---,0.00,VWS V14.00,2013-01-18 11:29:00,
2013-01-18 03:35:00,41.7,32.7,29.85,WSW,248,0.0,0.0,70,0.00,,---,0.00,VWS V14.00,2013-01-18 11:35:00,
2013-01-18 03:40:00,41.5,32.5,29.85,SSW,202,0.0,0.0,70,0.00,,---,0.00,VWS V14.00,2013-01-18 11:40:00,
2013-01-18 03:46:00,41.7,32.7,29.85,SW,225,0.0,0.0,70,0.00,,---,0.00,VWS V14.00,2013-01-18 11:46:00,
2013-01-18 03:51:00,41.7,32.7,29.85,SW,225,0.0,0.0,70,0.00,,---,0.00,VWS V14.00,2013-01-18 11:51:00,
2013-01-18 03:56:00,41.7,32.7,29.85,WSW,248,0.0,0.0,70,0.00,,---,0.00,VWS V14.00,2013-01-18 11:56:00,
2013-01-18 04:01:00,41.5,32.5,29.85,SSW,202,0.0,0.0,70,0.00,,---,0.00,VWS V14.00,2013-01-18 12:01:00,
2013-01-18 04:06:00,41.9,32.8,29.85,WSW,248,1.3,1.3,70,0.00,,---,0.00,VWS V14.00,2013-01-18 12:06:00,
2013-01-18 04:11:00,42.3,33.2,29.85,SSW,202,2.0,2.2,70,0.00,,---,0.00,VWS V14.00,2013-01-18 12:11:00,
2013-01-18 04:17:00,42.4,33.4,29.85,SSW,202,1.1,1.1,70,0.00,,---,0.00,VWS V14.00,2013-01-18 12:17:00,
2013-01-18 04:22:00,42.4,33.4,29.85,SW,225,0.9,0.9,70,0.00,,---,0.00,VWS V14.00,2013-01-18 12:22:00,
2013-01-18 04:28:00,42.4,33.4,29.85,WNW,292,0.0,0.0,70,0.00,,---,0.00,VWS V14.00,2013-01-18 12:28:00,
2013-01-18 04:33:00,42.3,33.2,29.85,NW,315,1.6,1.6,70,0.00,,---,0.00,VWS V14.00,2013-01-18 12:33:00,
2013-01-18 04:38:00,41.7,32.7,29.85,WSW,248,0.0,1.1,70,0.00,,---,0.00,VWS V14.00,2013-01-18 12:38:00,
2013-01-18 04:43:00,41.7,32.7,29.85,SW,225,1.1,2.5,70,0.00,,---,0.00,VWS V14.00,2013-01-18 12:43:00,
2013-01-18 04:49:00,42.3,33.2,29.85,WSW,248,0.0,0.0,70,0.00,,---,0.00,VWS V14.00,2013-01-18 12:49:00,
2013-01-18 04:54:00,42.3,33.2,29.85,WSW,248,0.0,0.0,70,0.00,,---,0.00,VWS V14.00,2013-01-18 12:54:00,
2013-01-18 05:00:00,42.1,33.0,29.85,WSW,248,0.0,0.0,70,0.00,,---,0.00,VWS V14.00,2013-01-18 13:00:00,
2013-01-18 05:04:00,42.1,33.0,29.82,WNW,292,0.0,0.0,70,0.00,,---,0.00,VWS V14.00,2013-01-18 13:04:00,
2013-01-18 05:10:00,41.7,32.7,29.82,WNW,292,0.0,0.0,70,0.00,,---,0.00,VWS V14.00,2013-01-18 13:10:00,
2013-01-18 05:15:00,41.7,32.7,29.82,NW,315,0.9,0.9,70,0.00,,---,0.00,VWS V14.00,2013-01-18 13:15:00,
2013-01-18 05:19:00,41.7,32.7,29.82,NW,315,0.0,0.0,70,0.00,,---,0.00,VWS V14.00,2013-01-18 13:19:00,
2013-01-18 05:25:00,41.2,32.2,29.82,NW,315,0.0,0.0,70,0.00,,---,0.00,VWS V14.00,2013-01-18 13:25:00,
2013-01-18 05:30:00,41.2,32.2,29.82,NW,315,0.0,0.0,70,0.00,,---,0.00,VWS V14.00,2013-01-18 13:30:00,
2013-01-18 05:35:00,41.2,32.2,29.85,West,270,0.0,0.0,70,0.00,,---,0.00,VWS V14.00,2013-01-18 13:35:00,
2013-01-18 05:41:00,40.8,32.2,29.85,SSE,158,1.6,1.6,71,0.00,,---,0.00,VWS V14.00,2013-01-18 13:41:00,
2013-01-18 05:46:00,40.6,32.0,29.85,SSE,158,1.6,1.6,71,0.00,,---,0.00,VWS V14.00,2013-01-18 13:46:00,
2013-01-18 05:52:00,40.6,32.0,29.85,NNW,338,0.0,1.6,71,0.00,,---,0.00,VWS V14.00,2013-01-18 13:52:00,
2013-01-18 05:57:00,40.6,32.0,29.85,NW,315,0.0,0.0,71,0.00,,---,0.00,VWS V14.00,2013-01-18 13:57:00,
2013-01-18 06:02:00,40.6,32.0,29.85,South,180,0.0,0.9,71,0.00,,---,0.00,VWS V14.00,2013-01-18 14:02:00,
2013-01-18 06:07:00,40.3,32.0,29.85,WNW,292,0.0,0.0,72,0.00,,---,0.00,VWS V14.00,2013-01-18 14:07:00,
2013-01-18 06:12:00,40.3,32.0,29.85,WNW,292,0.0,0.0,72,0.00,,---,0.00,VWS V14.00,2013-01-18 14:12:00,
2013-01-18 06:17:00,40.3,32.0,29.88,SSW,202,1.1,2.0,72,0.00,,---,0.00,VWS V14.00,2013-01-18 14:17:00,
2013-01-18 06:23:00,40.3,32.0,29.88,SSE,158,2.0,2.0,72,0.00,,---,0.00,VWS V14.00,2013-01-18 14:23:00,
2013-01-18 06:28:00,40.3,32.0,29.88,South,180,0.0,4.7,72,0.00,,---,0.00,VWS V14.00,2013-01-18 14:28:00,
2013-01-18 06:33:00,42.1,33.7,29.88,SE,135,2.0,2.0,72,0.00,,---,0.00,VWS V14.00,2013-01-18 14:33:00,
2013-01-18 06:38:00,43.0,34.2,29.88,ESE,112,2.2,2.2,71,0.00,,---,0.00,VWS V14.00,2013-01-18 14:38:00,
2013-01-18 06:43:00,43.3,34.6,29.88,SSE,158,2.0,2.0,71,0.00,,---,0.00,VWS V14.00,2013-01-18 14:43:00,
2013-01-18 06:48:00,43.5,34.4,29.88,South,180,0.0,2.2,70,0.00,,---,0.00,VWS V14.00,2013-01-18 14:48:00,
2013-01-18 06:54:00,43.9,34.7,29.88,SW,225,0.0,0.0,70,0.00,,---,0.00,VWS V14.00,2013-01-18 14:54:00,
2013-01-18 06:58:00,43.9,34.7,29.88,ENE,68,0.0,0.0,70,0.00,,---,0.00,VWS V14.00,2013-01-18 14:58:00,
2013-01-18 07:03:00,43.9,34.7,29.88,ENE,68,0.0,0.0,70,0.00,,---,0.00,VWS V14.00,2013-01-18 15:03:00,
2013-01-18 07:09:00,42.8,33.0,29.88,South,180,0.0,0.0,68,0.00,,---,0.00,VWS V14.00,2013-01-18 15:09:00,
2013-01-18 07:13:00,42.4,32.6,29.88,SW,225,0.0,0.0,68,0.00,,---,0.00,VWS V14.00,2013-01-18 15:13:00,
2013-01-18 07:19:00,42.1,32.7,29.88,SW,225,0.0,0.0,69,0.00,,---,0.00,VWS V14.00,2013-01-18 15:19:00,
2013-01-18 07:24:00,42.1,32.7,29.88,ESE,112,0.0,0.0,69,0.00,,---,0.00,VWS V14.00,2013-01-18 15:24:00,
2013-01-18 07:28:00,41.7,32.3,29.88,SSW,202,0.0,0.0,69,0.00,,---,0.00,VWS V14.00,2013-01-18 15:28:00,
2013-01-18 07:34:00,41.7,32.3,29.88,SSW,202,0.0,0.0,69,0.00,,---,0.00,VWS V14.00,2013-01-18 15:34:00,
2013-01-18 07:38:00,41.5,32.1,29.88,East,90,0.0,0.0,69,0.00,,---,0.00,VWS V14.00,2013-01-18 15:38:00,
2013-01-18 07:44:00,41.5,32.1,29.88,East,90,0.0,0.0,69,0.00,,---,0.00,VWS V14.00,2013-01-18 15:44:00,
2013-01-18 07:49:00,41.5,32.1,29.88,NNW,338,0.0,0.0,69,0.00,,---,0.00,VWS V14.00,2013-01-18 15:49:00,
2013-01-18 07:54:00,41.4,32.3,29.88,NNW,338,0.0,0.0,70,0.00,,---,0.00,VWS V14.00,2013-01-18 15:54:00,
2013-01-18 07:59:00,41.4,32.3,29.88,NNW,338,1.1,1.3,70,0.00,,---,0.00,VWS V14.00,2013-01-18 15:59:00,
2013-01-18 08:05:00,41.4,32.7,29.88,NW,315,2.0,2.2,71,0.00,,---,0.00,VWS V14.00,2013-01-18 16:05:00,
2013-01-18 08:10:00,41.4,32.7,29.88,NW,315,0.0,1.6,71,0.00,,---,0.00,VWS V14.00,2013-01-18 16:10:00,
2013-01-18 08:16:00,41.5,32.8,29.88,NW,315,1.6,1.6,71,0.00,,---,0.00,VWS V14.00,2013-01-18 16:16:00,
2013-01-18 08:21:00,41.7,33.0,29.88,WNW,292,2.0,2.0,71,0.00,,---,0.00,VWS V14.00,2013-01-18 16:21:00,
2013-01-18 08:26:00,41.7,33.0,29.88,NW,315,1.6,1.6,71,0.00,,---,0.00,VWS V14.00,2013-01-18 16:26:00,
2013-01-18 08:31:00,41.7,33.0,29.91,East,90,0.0,0.0,71,0.00,,---,0.00,VWS V14.00,2013-01-18 16:31:00,
2013-01-18 08:36:00,42.3,33.9,29.91,South,180,0.0,1.6,72,0.00,,---,0.00,VWS V14.00,2013-01-18 16:36:00,
2013-01-18 08:42:00,42.8,34.1,29.91,ESE,112,3.4,3.4,71,0.00,,---,0.00,VWS V14.00,2013-01-18 16:42:00,
2013-01-18 08:48:00,42.8,34.1,29.91,SSE,158,5.6,5.6,71,0.00,,---,0.00,VWS V14.00,2013-01-18 16:48:00,
2013-01-18 08:53:00,44.8,36.0,29.91,SSE,158,3.6,4.0,71,0.00,,---,0.00,VWS V14.00,2013-01-18 16:53:00,
2013-01-18 08:59:00,45.9,37.0,29.91,SE,135,3.4,3.8,71,0.00,,---,0.00,VWS V14.00,2013-01-18 16:59:00,
2013-01-18 09:04:00,45.9,37.0,29.91,SSE,158,3.1,3.1,71,0.00,,---,0.00,VWS V14.00,2013-01-18 17:04:00,
2013-01-18 09:09:00,47.3,37.7,29.91,ESE,112,2.9,2.9,69,0.00,,---,0.00,VWS V14.00,2013-01-18 17:09:00,
2013-01-18 09:14:00,47.8,38.2,29.91,ESE,112,2.5,2.5,69,0.00,,---,0.00,VWS V14.00,2013-01-18 17:14:00,
2013-01-18 09:19:00,48.2,38.2,29.91,SSW,202,5.4,5.4,68,0.00,,---,0.00,VWS V14.00,2013-01-18 17:19:00,
2013-01-18 09:24:00,48.9,38.1,29.91,SSE,158,2.7,4.0,66,0.00,,---,0.00,VWS V14.00,2013-01-18 17:24:00,
2013-01-18 09:30:00,49.3,38.4,29.91,ESE,112,2.2,2.2,66,0.00,,---,0.00,VWS V14.00,2013-01-18 17:30:00,
2013-01-18 09:35:00,50.0,38.7,29.91,NNW,338,2.9,3.6,65,0.00,,---,0.00,VWS V14.00,2013-01-18 17:35:00,
2013-01-18 09:41:00,50.4,38.7,29.91,ESE,112,4.9,4.9,64,0.00,,---,0.00,VWS V14.00,2013-01-18 17:41:00,
2013-01-18 09:47:00,51.1,38.9,29.91,SSE,158,3.1,4.0,63,0.00,,---,0.00,VWS V14.00,2013-01-18 17:47:00,
2013-01-18 09:53:00,51.3,39.1,29.91,NNE,22,2.0,3.1,63,0.00,,---,0.00,VWS V14.00,2013-01-18 17:53:00,
2013-01-18 09:58:00,51.6,39.0,29.91,SSE,158,4.0,4.0,62,0.00,,---,0.00,VWS V14.00,2013-01-18 17:58:00,
2013-01-18 10:03:00,51.6,39.0,29.91,SSE,158,2.0,2.7,62,0.00,,---,0.00,VWS V14.00,2013-01-18 18:03:00,
2013-01-18 10:08:00,52.9,39.4,29.91,SE,135,2.9,2.9,60,0.00,,---,0.00,VWS V14.00,2013-01-18 18:08:00,
2013-01-18 10:14:00,53.4,39.5,29.91,South,180,1.1,3.1,59,0.00,,---,0.00,VWS V14.00,2013-01-18 18:14:00,
2013-01-18 10:19:00,54.0,39.5,29.94,NE,45,1.3,3.6,58,0.00,,---,0.00,VWS V14.00,2013-01-18 18:19:00,
2013-01-18 10:25:00,54.3,39.9,29.94,SSE,158,7.4,7.4,58,0.00,,---,0.00,VWS V14.00,2013-01-18 18:25:00,
2013-01-18 10:31:00,54.9,39.9,29.94,SSE,158,2.0,2.9,57,0.00,,---,0.00,VWS V14.00,2013-01-18 18:31:00,
2013-01-18 10:36:00,54.9,39.9,29.94,SSE,158,2.0,2.0,57,0.00,,---,0.00,VWS V14.00,2013-01-18 18:36:00,
2013-01-18 10:41:00,56.1,40.2,29.94,South,180,2.0,2.0,55,0.00,,---,0.00,VWS V14.00,2013-01-18 18:41:00,
2013-01-18 10:47:00,56.1,40.2,29.94,ESE,112,2.9,2.9,55,0.00,,---,0.00,VWS V14.00,2013-01-18 18:47:00,
2013-01-18 10:52:00,56.8,40.4,29.91,East,90,2.7,2.9,54,0.00,,---,0.00,VWS V14.00,2013-01-18 18:52:00,
2013-01-18 10:57:00,57.4,39.9,29.91,ENE,68,2.9,2.9,52,0.00,,---,0.00,VWS V14.00,2013-01-18 18:57:00,
2013-01-18 11:03:00,57.9,39.9,29.91,SSW,202,3.4,3.4,51,0.00,,---,0.00,VWS V14.00,2013-01-18 19:03:00,
2013-01-18 11:08:00,57.9,39.9,29.91,ESE,112,2.5,3.8,51,0.00,,---,0.00,VWS V14.00,2013-01-18 19:08:00,
2013-01-18 11:13:00,59.4,40.2,29.91,SSE,158,3.6,3.6,49,0.00,,---,0.00,VWS V14.00,2013-01-18 19:13:00,
2013-01-18 11:19:00,60.1,40.9,29.91,ESE,112,4.0,4.0,49,0.00,,---,0.00,VWS V14.00,2013-01-18 19:19:00,
2013-01-18 11:25:00,60.8,40.5,29.91,East,90,3.6,3.6,47,0.00,,---,0.00,VWS V14.00,2013-01-18 19:25:00,
2013-01-18 11:30:00,61.5,41.1,29.91,South,180,1.1,1.1,47,0.00,,---,0.00,VWS V14.00,2013-01-18 19:30:00,
2013-01-18 11:36:00,61.5,41.1,29.91,SSE,158,6.5,6.5,47,0.00,,---,0.00,VWS V14.00,2013-01-18 19:36:00,
2013-01-18 11:42:00,61.5,41.1,29.91,SSW,202,2.7,2.7,47,0.00,,---,0.00,VWS V14.00,2013-01-18 19:42:00,
2013-01-18 11:47:00,64.4,42.6,29.91,ESE,112,4.3,4.3,45,0.00,,---,0.00,VWS V14.00,2013-01-18 19:47:00,
2013-01-18 11:51:00,65.5,43.0,29.91,ENE,68,4.3,4.3,44,0.00,,---,0.00,VWS V14.00,2013-01-18 19:51:00,
2013-01-18 11:57:00,66.0,42.9,29.91,ESE,112,2.0,2.7,43,0.00,,---,0.00,VWS V14.00,2013-01-18 19:57:00,
2013-01-18 12:03:00,66.6,42.2,29.88,ESE,112,4.0,4.0,41,0.00,,---,0.00,VWS V14.00,2013-01-18 20:03:00,
2013-01-18 12:08:00,66.7,42.3,29.88,ESE,112,2.5,4.0,41,0.00,,---,0.00,VWS V14.00,2013-01-18 20:08:00,
2013-01-18 12:13:00,67.1,42.6,29.88,NE,45,2.0,3.6,41,0.00,,---,0.00,VWS V14.00,2013-01-18 20:13:00,
2013-01-18 12:18:00,67.1,42.6,29.88,SW,225,0.9,1.3,41,0.00,,---,0.00,VWS V14.00,2013-01-18 20:18:00,
2013-01-18 12:23:00,68.2,41.6,29.88,SSW,202,2.7,3.6,38,0.00,,---,0.00,VWS V14.00,2013-01-18 20:23:00,
2013-01-18 12:28:00,68.7,42.1,29.88,NNE,22,3.1,3.1,38,0.00,,---,0.00,VWS V14.00,2013-01-18 20:28:00,
2013-01-18 12:34:00,69.1,41.7,29.88,East,90,2.5,2.9,37,0.00,,---,0.00,VWS V14.00,2013-01-18 20:34:00,
2013-01-18 12:39:00,69.1,41.7,29.88,ESE,112,1.6,2.9,37,0.00,,---,0.00,VWS V14.00,2013-01-18 20:39:00,
2013-01-18 12:43:00,69.8,41.7,29.88,SSE,158,2.5,3.4,36,0.00,,---,0.00,VWS V14.00,2013-01-18 20:43:00,
2013-01-18 12:48:00,70.0,41.8,29.88,WNW,292,2.2,2.2,36,0.00,,---,0.00,VWS V14.00,2013-01-18 20:48:00,
2013-01-18 12:54:00,70.3,42.2,29.88,SSE,158,2.5,2.5,36,0.00,,---,0.00,VWS V14.00,2013-01-18 20:54:00,
2013-01-18 12:59:00,70.3,41.4,29.88,SSE,158,4.3,5.6,35,0.00,,---,0.00,VWS V14.00,2013-01-18 20:59:00,
2013-01-18 13:05:00,70.3,41.4,29.85,SSE,158,2.7,2.7,35,0.00,,---,0.00,VWS V14.00,2013-01-18 21:05:00,
2013-01-18 13:10:00,71.1,42.0,29.85,SE,135,1.1,2.7,35,0.00,,---,0.00,VWS V14.00,2013-01-18 21:10:00,
2013-01-18 13:16:00,71.4,42.4,29.85,ESE,112,1.3,2.5,35,0.00,,---,0.00,VWS V14.00,2013-01-18 21:16:00,
2013-01-18 13:21:00,71.4,42.4,29.85,SSE,158,3.1,3.6,35,0.00,,---,0.00,VWS V14.00,2013-01-18 21:21:00,
2013-01-18 13:25:00,71.2,41.5,29.85,South,180,2.9,3.8,34,0.00,,---,0.00,VWS V14.00,2013-01-18 21:25:00,
2013-01-18 13:30:00,71.4,41.6,29.85,ESE,112,1.1,2.5,34,0.00,,---,0.00,VWS V14.00,2013-01-18 21:30:00,
2013-01-18 13:37:00,71.4,41.6,29.85,NNE,22,1.3,2.2,34,0.00,,---,0.00,VWS V14.00,2013-01-18 21:37:00,
2013-01-18 13:42:00,72.1,42.2,29.85,NE,45,1.1,1.1,34,0.00,,---,0.00,VWS V14.00,2013-01-18 21:42:00,
2013-01-18 13:47:00,72.1,41.5,29.85,NNE,22,1.3,1.6,33,0.00,,---,0.00,VWS V14.00,2013-01-18 21:47:00,
2013-01-18 13:53:00,72.0,41.3,29.85,SE,135,1.3,2.5,33,0.00,,---,0.00,VWS V14.00,2013-01-18 21:53:00,
2013-01-18 13:58:00,72.0,41.3,29.85,WNW,292,2.0,3.1,33,0.00,,---,0.00,VWS V14.00,2013-01-18 21:58:00,
2013-01-18 14:04:00,72.0,41.3,29.85,NW,315,0.9,0.9,33,0.00,,---,0.00,VWS V14.00,2013-01-18 22:04:00,
2013-01-18 14:09:00,72.1,41.5,29.85,SSW,202,0.9,2.5,33,0.00,,---,0.00,VWS V14.00,2013-01-18 22:09:00,
2013-01-18 14:16:00,72.1,41.5,29.85,WNW,292,1.1,1.1,33,0.00,,---,0.00,VWS V14.00,2013-01-18 22:16:00,
2013-01-18 14:21:00,72.0,41.3,29.85,ESE,112,3.1,3.1,33,0.00,,---,0.00,VWS V14.00,2013-01-18 22:21:00,
2013-01-18 14:26:00,71.8,40.4,29.85,SE,135,0.9,2.7,32,0.00,,---,0.00,VWS V14.00,2013-01-18 22:26:00,
2013-01-18 14:31:00,71.6,40.2,29.85,North,0,1.6,2.2,32,0.00,,---,0.00,VWS V14.00,2013-01-18 22:31:00,
2013-01-18 14:37:00,71.6,40.2,29.85,WNW,292,2.7,2.7,32,0.00,,---,0.00,VWS V14.00,2013-01-18 22:37:00,
2013-01-18 14:42:00,71.6,40.2,29.85,NW,315,1.6,2.0,32,0.00,,---,0.00,VWS V14.00,2013-01-18 22:42:00,
2013-01-18 14:47:00,70.7,40.2,29.82,NW,315,2.5,2.5,33,0.00,,---,0.00,VWS V14.00,2013-01-18 22:47:00,
2013-01-18 14:52:00,70.2,39.7,29.82,NNW,338,1.3,1.6,33,0.00,,---,0.00,VWS V14.00,2013-01-18 22:52:00,
2013-01-18 14:58:00,70.3,39.9,29.82,NNW,338,0.9,1.1,33,0.00,,---,0.00,VWS V14.00,2013-01-18 22:58:00,
2013-01-18 15:03:00,70.2,39.7,29.82,NNE,22,1.1,1.6,33,0.00,,---,0.00,VWS V14.00,2013-01-18 23:03:00,
2013-01-18 15:08:00,70.2,39.7,29.82,NNE,22,0.0,1.1,33,0.00,,---,0.00,VWS V14.00,2013-01-18 23:08:00,
2013-01-18 15:13:00,70.2,39.7,29.82,SSW,202,1.6,1.6,33,0.00,,---,0.00,VWS V14.00,2013-01-18 23:13:00,
2013-01-18 15:18:00,69.6,39.3,29.82,North,0,2.0,2.0,33,0.00,,---,0.00,VWS V14.00,2013-01-18 23:18:00,
2013-01-18 15:24:00,69.3,39.0,29.82,East,90,0.0,1.6,33,0.00,,---,0.00,VWS V14.00,2013-01-18 23:24:00,
2013-01-18 15:30:00,68.9,38.6,29.82,NW,315,0.0,0.9,33,0.00,,---,0.00,VWS V14.00,2013-01-18 23:30:00,
2013-01-18 15:36:00,68.7,38.5,29.82,WNW,292,1.3,1.3,33,0.00,,---,0.00,VWS V14.00,2013-01-18 23:36:00,
2013-01-18 15:41:00,68.7,38.5,29.82,ESE,112,1.3,1.3,33,0.00,,---,0.00,VWS V14.00,2013-01-18 23:41:00,
2013-01-18 15:47:00,68.7,38.5,29.85,NW,315,1.6,1.6,33,0.00,,---,0.00,VWS V14.00,2013-01-18 23:47:00,
2013-01-18 15:53:00,66.9,37.7,29.85,WNW,292,1.6,1.6,34,0.00,,---,0.00,VWS V14.00,2013-01-18 23:53:00,
2013-01-18 15:58:00,66.4,37.2,29.85,NW,315,1.6,1.6,34,0.00,,---,0.00,VWS V14.00,2013-01-18 23:58:00,
2013-01-18 16:04:00,66.0,37.6,29.85,NW,315,0.0,0.0,35,0.00,,---,0.00,VWS V14.00,2013-01-19 00:04:00,
2013-01-18 16:09:00,66.0,37.6,29.85,NW,315,0.0,0.0,35,0.00,,---,0.00,VWS V14.00,2013-01-19 00:09:00,
2013-01-18 16:14:00,66.0,37.6,29.85,NW,315,0.0,0.0,35,0.00,,---,0.00,VWS V14.00,2013-01-19 00:14:00,
2013-01-18 16:18:00,66.0,37.6,29.82,WNW,292,0.0,0.0,35,0.00,,---,0.00,VWS V14.00,2013-01-19 00:18:00,
2013-01-18 16:24:00,63.3,36.6,29.82,WSW,248,0.0,0.0,37,0.00,,---,0.00,VWS V14.00,2013-01-19 00:24:00,
2013-01-18 16:30:00,62.6,36.0,29.82,West,270,0.0,0.0,37,0.00,,---,0.00,VWS V14.00,2013-01-19 00:30:00,
2013-01-18 16:35:00,62.2,36.3,29.82,West,270,0.0,0.0,38,0.00,,---,0.00,VWS V14.00,2013-01-19 00:35:00,
2013-01-18 16:40:00,61.9,36.7,29.82,SW,225,0.0,0.0,39,0.00,,---,0.00,VWS V14.00,2013-01-19 00:40:00,
2013-01-18 16:45:00,61.9,36.7,29.82,SSW,202,0.0,0.0,39,0.00,,---,0.00,VWS V14.00,2013-01-19 00:45:00,
2013-01-18 16:51:00,60.4,36.0,29.82,NNW,338,0.0,0.0,40,0.00,,---,0.00,VWS V14.00,2013-01-19 00:51:00,
2013-01-18 16:56:00,59.9,36.2,29.82,NNW,338,0.0,0.0,41,0.00,,---,0.00,VWS V14.00,2013-01-19 00:56:00,
2013-01-18 17:01:00,59.2,36.1,29.82,NNW,338,0.0,0.0,42,0.00,,---,0.00,VWS V14.00,2013-01-19 01:01:00,
2013-01-18 17:07:00,58.5,36.7,29.82,NNW,338,0.0,0.0,44,0.00,,---,0.00,VWS V14.00,2013-01-19 01:07:00,
2013-01-18 17:12:00,58.5,36.7,29.82,NNW,338,0.0,0.0,44,0.00,,---,0.00,VWS V14.00,2013-01-19 01:12:00,
2013-01-18 17:18:00,57.4,36.2,29.82,NNW,338,0.0,0.0,45,0.00,,---,0.00,VWS V14.00,2013-01-19 01:18:00,
2013-01-18 17:23:00,57.2,36.1,29.82,NNW,338,0.0,0.0,45,0.00,,---,0.00,VWS V14.00,2013-01-19 01:23:00,
2013-01-18 17:29:00,56.1,35.6,29.82,NNW,338,0.0,0.0,46,0.00,,---,0.00,VWS V14.00,2013-01-19 01:29:00,
2013-01-18 17:34:00,55.6,35.2,29.85,NNW,338,0.0,0.0,46,0.00,,---,0.00,VWS V14.00,2013-01-19 01:34:00,
2013-01-18 17:40:00,55.6,35.2,29.85,NW,315,2.0,2.0,46,0.00,,---,0.00,VWS V14.00,2013-01-19 01:40:00,
2013-01-18 17:45:00,54.7,35.4,29.85,NW,315,0.0,0.0,48,0.00,,---,0.00,VWS V14.00,2013-01-19 01:45:00,
2013-01-18 17:50:00,54.1,34.9,29.82,NW,315,0.0,0.0,48,0.00,,---,0.00,VWS V14.00,2013-01-19 01:50:00,
2013-01-18 17:56:00,53.8,34.6,29.82,NW,315,0.0,0.0,48,0.00,,---,0.00,VWS V14.00,2013-01-19 01:56:00,
2013-01-18 18:01:00,53.4,34.8,29.82,NW,315,1.3,1.3,49,0.00,,---,0.00,VWS V14.00,2013-01-19 02:01:00,
2013-01-18 18:06:00,53.2,34.6,29.85,NW,315,1.1,1.1,49,0.00,,---,0.00,VWS V14.00,2013-01-19 02:06:00,
2013-01-18 18:11:00,53.1,34.9,29.85,NW,315,1.1,1.1,50,0.00,,---,0.00,VWS V14.00,2013-01-19 02:11:00,
2013-01-18 18:16:00,53.1,34.9,29.85,NW,315,1.3,1.3,50,0.00,,---,0.00,VWS V14.00,2013-01-19 02:16:00,
2013-01-18 18:22:00,53.1,34.9,29.85,NW,315,1.3,1.3,50,0.00,,---,0.00,VWS V14.00,2013-01-19 02:22:00,
2013-01-18 18:27:00,53.1,34.9,29.85,NW,315,0.0,0.0,50,0.00,,---,0.00,VWS V14.00,2013-01-19 02:27:00,
2013-01-18 18:32:00,51.8,34.3,29.85,NW,315,0.0,0.0,51,0.00,,---,0.00,VWS V14.00,2013-01-19 02:32:00,
2013-01-18 18:38:00,51.4,34.4,29.85,NW,315,0.0,0.0,52,0.00,,---,0.00,VWS V14.00,2013-01-19 02:38:00,
2013-01-18 18:43:00,51.4,34.9,29.85,NNW,338,1.1,1.1,53,0.00,,---,0.00,VWS V14.00,2013-01-19 02:43:00,
2013-01-18 18:48:00,51.1,34.6,29.85,NW,315,1.3,1.3,53,0.00,,---,0.00,VWS V14.00,2013-01-19 02:48:00,
2013-01-18 18:53:00,50.9,34.4,29.85,NW,315,0.0,0.0,53,0.00,,---,0.00,VWS V14.00,2013-01-19 02:53:00,
2013-01-18 18:58:00,50.9,34.4,29.85,NW,315,0.0,0.0,53,0.00,,---,0.00,VWS V14.00,2013-01-19 02:58:00,
2013-01-18 19:04:00,50.9,34.4,29.85,NW,315,1.3,1.3,53,0.00,,---,0.00,VWS V14.00,2013-01-19 03:04:00,
2013-01-18 19:10:00,50.9,34.4,29.85,NW,315,1.3,1.3,53,0.00,,---,0.00,VWS V14.00,2013-01-19 03:10:00,
2013-01-18 19:16:00,50.0,34.5,29.85,NW,315,0.0,1.6,55,0.00,,---,0.00,VWS V14.00,2013-01-19 03:16:00,
2013-01-18 19:21:00,49.8,34.3,29.85,NW,315,0.0,0.0,55,0.00,,---,0.00,VWS V14.00,2013-01-19 03:21:00,
2013-01-18 19:26:00,49.8,34.8,29.85,NW,315,0.0,0.0,56,0.00,,---,0.00,VWS V14.00,2013-01-19 03:26:00,
2013-01-18 19:32:00,49.8,34.8,29.85,WNW,292,1.6,1.6,56,0.00,,---,0.00,VWS V14.00,2013-01-19 03:32:00,
2013-01-18 19:38:00,49.3,34.3,29.85,NW,315,1.3,1.3,56,0.00,,---,0.00,VWS V14.00,2013-01-19 03:38:00,
2013-01-18 19:42:00,49.1,34.5,29.85,NW,315,1.6,2.0,57,0.00,,---,0.00,VWS V14.00,2013-01-19 03:42:00,
2013-01-18 19:47:00,49.1,34.5,29.85,NW,315,0.0,0.0,57,0.00,,---,0.00,VWS V14.00,2013-01-19 03:47:00,
2013-01-18 19:53:00,48.7,34.2,29.85,NNW,338,0.0,1.3,57,0.00,,---,0.00,VWS V14.00,2013-01-19 03:53:00,
2013-01-18 19:58:00,48.7,34.2,29.85,NW,315,1.3,1.3,57,0.00,,---,0.00,VWS V14.00,2013-01-19 03:58:00,
2013-01-18 20:03:00,48.7,34.2,29.85,NW,315,0.0,0.0,57,0.00,,---,0.00,VWS V14.00,2013-01-19 04:03:00,
2013-01-18 20:09:00,48.7,34.2,29.85,SW,225,0.0,0.0,57,0.00,,---,0.00,VWS V14.00,2013-01-19 04:09:00,
2013-01-18 20:14:00,48.6,34.0,29.85,NW,315,0.0,0.0,57,0.00,,---,0.00,VWS V14.00,2013-01-19 04:14:00,
2013-01-18 20:20:00,48.4,33.9,29.85,NW,315,0.0,1.3,57,0.00,,---,0.00,VWS V14.00,2013-01-19 04:20:00,
2013-01-18 20:25:00,48.2,33.7,29.85,NW,315,0.0,1.3,57,0.00,,---,0.00,VWS V14.00,2013-01-19 04:25:00,
2013-01-18 20:30:00,48.2,33.7,29.85,NW,315,0.0,0.0,57,0.00,,---,0.00,VWS V14.00,2013-01-19 04:30:00,
2013-01-18 20:35:00,48.0,34.0,29.85,NW,315,0.0,0.0,58,0.00,,---,0.00,VWS V14.00,2013-01-19 04:35:00,
2013-01-18 20:40:00,47.8,33.8,29.85,NW,315,1.3,1.3,58,0.00,,---,0.00,VWS V14.00,2013-01-19 04:40:00,
2013-01-18 20:46:00,47.8,33.8,29.85,NW,315,1.6,2.0,58,0.00,,---,0.00,VWS V14.00,2013-01-19 04:46:00,
2013-01-18 20:51:00,47.8,33.8,29.85,NW,315,1.3,1.3,58,0.00,,---,0.00,VWS V14.00,2013-01-19 04:51:00,
2013-01-18 20:56:00,47.8,33.8,29.85,NW,315,0.0,0.0,58,0.00,,---,0.00,VWS V14.00,2013-01-19 04:56:00,
2013-01-18 21:02:00,47.8,33.8,29.85,NW,315,0.0,0.0,58,0.00,,---,0.00,VWS V14.00,2013-01-19 05:02:00,
2013-01-18 21:05:00,47.3,33.3,29.85,NW,315,0.0,0.0,58,0.00,,---,0.00,VWS V14.00,2013-01-19 05:05:00,
2013-01-18 21:06:00,47.3,33.7,29.85,NW,315,0.0,0.0,59,0.00,,---,0.00,VWS V14.00,2013-01-19 05:06:00,
2013-01-18 21:09:00,47.3,33.7,29.85,NNW,338,1.3,1.6,59,0.00,,---,0.00,VWS V14.00,2013-01-19 05:09:00,
2013-01-18 21:15:00,47.3,33.7,29.85,NNW,338,1.3,1.3,59,0.00,,---,0.00,VWS V14.00,2013-01-19 05:15:00,
2013-01-18 21:20:00,47.1,33.5,29.85,NNW,338,1.6,1.6,59,0.00,,---,0.00,VWS V14.00,2013-01-19 05:20:00,
2013-01-18 21:26:00,47.1,33.5,29.85,WNW,292,2.7,2.7,59,0.00,,---,0.00,VWS V14.00,2013-01-19 05:26:00,
2013-01-18 21:31:00,46.9,33.4,29.85,SSW,202,1.6,1.6,59,0.00,,---,0.00,VWS V14.00,2013-01-19 05:31:00,
2013-01-18 21:37:00,46.9,33.8,29.85,NNE,22,0.0,0.0,60,0.00,,---,0.00,VWS V14.00,2013-01-19 05:37:00,
2013-01-18 21:42:00,46.9,33.8,29.85,East,90,0.0,0.0,60,0.00,,---,0.00,VWS V14.00,2013-01-19 05:42:00,
2013-01-18 21:47:00,46.8,33.6,29.85,NNW,338,0.0,0.0,60,0.00,,---,0.00,VWS V14.00,2013-01-19 05:47:00,
2013-01-18 21:53:00,46.8,33.6,29.85,SSE,158,1.3,1.3,60,0.00,,---,0.00,VWS V14.00,2013-01-19 05:53:00,
2013-01-18 21:59:00,46.8,33.2,29.85,South,180,1.3,1.3,59,0.00,,---,0.00,VWS V14.00,2013-01-19 05:59:00,
2013-01-18 22:05:00,48.2,33.7,29.85,SSW,202,2.2,2.7,57,0.00,,---,0.00,VWS V14.00,2013-01-19 06:05:00,
2013-01-18 22:10:00,49.6,34.2,29.85,West,270,2.0,2.5,55,0.00,,---,0.00,VWS V14.00,2013-01-19 06:10:00,
2013-01-18 22:16:00,50.0,33.6,29.85,SSW,202,1.1,1.3,53,0.00,,---,0.00,VWS V14.00,2013-01-19 06:16:00,
2013-01-18 22:21:00,50.4,33.4,29.85,SSE,158,2.7,2.7,52,0.00,,---,0.00,VWS V14.00,2013-01-19 06:21:00,
2013-01-18 22:26:00,50.9,33.4,29.85,SSE,158,3.6,3.6,51,0.00,,---,0.00,VWS V14.00,2013-01-19 06:26:00,
2013-01-18 22:32:00,51.3,33.3,29.85,SSE,158,2.5,2.7,50,0.00,,---,0.00,VWS V14.00,2013-01-19 06:32:00,
2013-01-18 22:38:00,51.6,32.6,29.85,SE,135,3.1,3.8,48,0.00,,---,0.00,VWS V14.00,2013-01-19 06:38:00,
2013-01-18 22:43:00,51.6,32.6,29.85,SSE,158,2.9,4.0,48,0.00,,---,0.00,VWS V14.00,2013-01-19 06:43:00,
2013-01-18 22:49:00,52.2,32.6,29.85,SSE,158,2.5,3.4,47,0.00,,---,0.00,VWS V14.00,2013-01-19 06:49:00,
2013-01-18 22:54:00,52.2,32.6,29.85,SE,135,4.0,4.0,47,0.00,,---,0.00,VWS V14.00,2013-01-19 06:54:00,
2013-01-18 23:00:00,52.5,32.3,29.85,SSE,158,2.0,2.5,46,0.00,,---,0.00,VWS V14.00,2013-01-19 07:00:00,
2013-01-18 23:05:00,52.5,32.3,29.88,SSE,158,1.6,2.2,46,0.00,,---,0.00,VWS V14.00,2013-01-19 07:05:00,
2013-01-18 23:10:00,52.5,32.3,29.88,SSE,158,1.3,2.0,46,0.00,,---,0.00,VWS V14.00,2013-01-19 07:10:00,
2013-01-18 23:16:00,52.5,32.3,29.88,SSW,202,1.1,1.3,46,0.00,,---,0.00,VWS V14.00,2013-01-19 07:16:00,
2013-01-18 23:21:00,51.3,31.7,29.88,WNW,292,0.0,0.0,47,0.00,,---,0.00,VWS V14.00,2013-01-19 07:21:00,
2013-01-18 23:26:00,50.5,31.1,29.88,NW,315,0.0,2.0,47,0.00,,---,0.00,VWS V14.00,2013-01-19 07:26:00,
2013-01-18 23:31:00,49.8,30.4,29.88,WNW,292,0.0,0.0,47,0.00,,---,0.00,VWS V14.00,2013-01-19 07:31:00,
2013-01-18 23:36:00,49.5,30.6,29.88,NW,315,0.0,0.0,48,0.00,,---,0.00,VWS V14.00,2013-01-19 07:36:00,
2013-01-18 23:42:00,49.5,30.6,29.88,NW,315,0.0,0.0,48,0.00,,---,0.00,VWS V14.00,2013-01-19 07:42:00,
2013-01-18 23:47:00,49.5,30.6,29.88,WSW,248,0.0,0.0,48,0.00,,---,0.00,VWS V14.00,2013-01-19 07:47:00,
2013-01-18 23:53:00,49.5,30.6,29.88,WSW,248,0.0,0.0,48,0.00,,---,0.00,VWS V14.00,2013-01-19 07:53:00,
2013-01-18 23:58:00,49.5,30.6,29.88,WSW,248,0.0,0.0,48,0.00,,---,0.00,VWS V14.00,2013-01-19 07:58:00,